Time,TemperatureF,DewpointF,PressureIn,WindDirection,WindDirectionDegrees,WindSpeedMPH,WindSpeedGustMPH,Humidity,HourlyPrecipIn,Conditions,Clouds,dailyrainin,SoftwareType,DateUTC
2013-01-28 00:00:00,71.6,59.7,30.17,ENE,68,0.0,8.3,66,0.00,,---,0.00,VWS V13.01,2013-01-28 05:00:00,
2013-01-28 01:00:00,71.2,58.9,30.17,ENE,68,0.0,8.7,65,0.00,,---,0.00,VWS V13.01,2013-01-28 06:00:00,
2013-01-28 02:00:00,71.4,59.0,30.16,NE,45,0.0,8.3,65,0.00,,---,0.00,VWS V13.01,2013-01-28 07:00:00,
2013-01-28 03:00:00,71.1,58.7,30.16,NE,45,1.3,6.5,65,0.00,,---,0.00,VWS V13.01,2013-01-28 08:00:00,
2013-01-28 04:00:00,70.7,57.9,30.15,NE,45,0.0,5.6,64,0.00,,---,0.00,VWS V13.01,2013-01-28 09:00:00,
2013-01-28 05:00:00,70.5,58.6,30.15,ENE,68,0.0,4.0,66,0.00,,---,0.00,VWS V13.01,2013-01-28 10:00:00,
2013-01-28 06:00:00,70.3,58.0,30.16,ENE,68,2.0,2.7,65,0.00,,---,0.00,VWS V13.01,2013-01-28 11:00:00,
2013-01-28 07:00:00,70.2,58.7,30.17,NE,45,2.5,3.4,67,0.00,,---,0.00,VWS V13.01,2013-01-28 12:00:00,
2013-01-28 08:00:00,71.6,58.8,30.19,East,90,0.0,6.0,64,0.00,,---,0.00,VWS V13.01,2013-01-28 13:00:00,
2013-01-28 09:00:00,74.8,59.1,30.20,ENE,68,1.1,7.8,58,0.00,,---,0.00,VWS V13.01,2013-01-28 14:00:00,
2013-01-28 10:00:00,77.5,60.1,30.22,SE,135,7.8,13.9,55,0.00,,---,0.00,VWS V13.01,2013-01-28 15:00:00,
2013-01-28 11:00:00,79.2,58.4,30.22,ESE,112,5.1,11.4,49,0.00,,---,0.00,VWS V13.01,2013-01-28 16:00:00,
2013-01-28 12:00:00,81.7,58.3,30.22,SE,135,7.4,13.6,45,0.00,,---,0.00,VWS V13.01,2013-01-28 17:00:00,
2013-01-28 13:00:00,82.0,56.7,30.18,East,90,1.1,13.9,42,0.00,,---,0.00,VWS V13.01,2013-01-28 18:00:00,
2013-01-28 14:00:00,82.2,57.5,30.16,ESE,112,2.0,11.6,43,0.00,,---,0.00,VWS V13.01,2013-01-28 19:00:00,
2013-01-28 15:00:00,81.7,57.7,30.14,ESE,112,2.9,11.2,44,0.00,,---,0.00,VWS V13.01,2013-01-28 20:00:00,
2013-01-28 16:00:00,80.6,55.4,30.14,SE,135,7.2,12.1,42,0.00,,---,0.00,VWS V13.01,2013-01-28 21:00:00,
2013-01-28 17:00:00,77.9,54.3,30.14,ESE,112,5.6,13.9,44,0.00,,---,0.00,VWS V13.01,2013-01-28 22:00:00,
2013-01-28 18:00:00,75.6,57.8,30.15,SE,135,0.0,11.4,54,0.00,,---,0.00,VWS V13.01,2013-01-28 23:00:00,
2013-01-28 19:00:00,74.1,57.9,30.15,East,90,2.7,7.6,57,0.00,,---,0.00,VWS V13.01,2013-01-29 00:00:00,
2013-01-28 20:00:00,74.3,59.5,30.16,SE,135,2.9,7.2,60,0.00,,---,0.00,VWS V13.01,2013-01-29 01:00:00,
2013-01-28 21:00:00,74.1,60.3,30.16,SE,135,4.5,5.6,62,0.00,,---,0.00,VWS V13.01,2013-01-29 02:00:00,
2013-01-28 22:00:00,73.8,60.8,30.16,East,90,0.0,7.4,64,0.00,,---,0.00,VWS V13.01,2013-01-29 03:00:00,
2013-01-28 23:00:00,72.9,60.4,30.16,East,90,0.0,5.4,65,0.00,,---,0.00,VWS V13.01,2013-01-29 04:00:00,